| time (UTC) | temp C | wind direction | speed KPH | gust KPH | rain 1hr cm | rain 24hr cm | rain mn cm | humidity % | barometer mb |
| 20260503185333 | 16 | 88 | 3.2 | 9.7 | 0.15 | 1.17 | 1.17 | 93 | 1014.5 |
| 20260503183833 | 16 | 129 | 4.8 | 9.7 | 0.10 | 1.12 | 1.12 | 94 | 1014.5 |
| 20260503182332 | 16 | 82 | 3.2 | 8.0 | 0.05 | 1.09 | 1.09 | 94 | 1014.4 |
| 20260503180833 | 16 | 105 | 3.2 | 8.0 | 0.03 | 1.04 | 1.04 | 95 | 1014.1 |
| 20260503175334 | 16 | 88 | 8.0 | 9.7 | 0.00 | 1.02 | 1.02 | 95 | 1014.1 |
| 20260503173832 | 16 | 121 | 3.2 | 8.0 | 0.05 | 1.02 | 1.02 | 94 | 1014.3 |
| 20260503172333 | 16 | 82 | 3.2 | 8.0 | 0.10 | 1.02 | 1.02 | 94 | 1014.4 |
| 20260503170834 | 16 | 107 | 3.2 | 12.9 | 0.15 | 1.02 | 1.02 | 94 | 1014.7 |
| 20260503150811 | 17 | 90 | 1.6 | 1.6 | 0.43 | 0.64 | 0.64 | 92 | 1016.3 |
| 20260503130811 | 17 | 270 | 0.0 | 1.6 | 0.10 | 0.13 | 0.13 | 84 | 1017.5 |
| 20260503110812 | 18 | 270 | 0.0 | 1.6 | 0.03 | 0.03 | 0.03 | 83 | 1017.5 |
| 20260503080813 | 22 | 90 | 3.2 | 8.0 | 0.00 | 0.00 | 0.00 | 51 | 1015.5 |
| 20260503072313 | 23 | 130 | 8.0 | 14.5 | 0.00 | 0.00 | 0.00 | 46 | 1015.1 |
| 20260503070811 | 23 | 137 | 3.2 | 4.8 | 0.00 | 0.00 | 0.00 | 45 | 1015.1 |
| 20260503053812 | 25 | 82 | 3.2 | 9.7 | 0.00 | 0.00 | 0.00 | 42 | 1015.5 |
| 20260503052311 | 25 | 89 | 12.9 | 20.9 | 0.00 | 0.00 | 0.00 | 42 | 1015.6 |
| 20260503050812 | 25 | 118 | 9.7 | 12.9 | 0.00 | 0.00 | 0.00 | 44 | 1015.6 |
| 20260503045312 | 24 | 147 | 4.8 | 12.9 | 0.00 | 0.00 | 0.00 | 46 | 1015.7 |
| 20260503043812 | 23 | 90 | 4.8 | 9.7 | 0.00 | 0.00 | 0.00 | 49 | 1015.8 |
| 20260503042311 | 25 | 45 | 8.0 | 12.9 | 0.00 | 0.00 | 0.00 | 43 | 1015.8 |
| 20260503040812 | 25 | 133 | 9.7 | 16.1 | 0.00 | 0.00 | 0.00 | 43 | 1015.9 |
| 20260503035312 | 25 | 170 | 9.7 | 19.3 | 0.00 | 0.00 | 0.00 | 43 | 1015.8 |
| 20260503033812 | 24 | 76 | 12.9 | 22.5 | 0.00 | 0.00 | 0.00 | 44 | 1016.0 |
| 20260503032313 | 24 | 69 | 12.9 | 20.9 | 0.00 | 0.00 | 0.00 | 45 | 1016.3 |
| 20260503030813 | 23 | 45 | 11.3 | 16.1 | 0.00 | 0.00 | 0.00 | 47 | 1016.7 |
| 20260503025312 | 23 | 133 | 4.8 | 8.0 | 0.00 | 0.00 | 0.00 | 48 | 1016.9 |
| 20260503023812 | 23 | 135 | 4.8 | 12.9 | 0.00 | 0.00 | 0.00 | 47 | 1017.3 |
| 20260503022313 | 23 | 90 | 3.2 | 14.5 | 0.00 | 0.00 | 0.00 | 48 | 1017.4 |
| 20260503020813 | 23 | 104 | 11.3 | 16.1 | 0.00 | 0.00 | 0.00 | 49 | 1017.7 |
| 20260503015312 | 23 | 55 | 11.3 | 20.9 | 0.00 | 0.00 | 0.00 | 50 | 1018.0 |
| 20260503013812 | 22 | 90 | 9.7 | 11.3 | 0.00 | 0.00 | 0.00 | 51 | 1018.1 |
| 20260503012312 | 23 | 118 | 14.5 | 22.5 | 0.00 | 0.00 | 0.00 | 49 | 1018.4 |
| 20260503010813 | 23 | 128 | 9.7 | 19.3 | 0.00 | 0.00 | 0.00 | 44 | 1018.4 |
| 20260503005311 | 23 | 45 | 12.9 | 20.9 | 0.00 | 0.00 | 0.00 | 45 | 1018.3 |
| 20260503003811 | 22 | 68 | 19.3 | 24.1 | 0.00 | 0.00 | 0.00 | 47 | 1018.5 |
| 20260503002313 | 22 | 144 | 9.7 | 20.9 | 0.00 | 0.00 | 0.00 | 50 | 1018.5 |
| 20260503000813 | 22 | 129 | 9.7 | 20.9 | 0.00 | 0.00 | 0.00 | 51 | 1018.9 |
| 20260502235312 | 21 | 134 | 16.1 | 24.1 | 0.00 | 0.00 | 0.00 | 52 | 1018.9 |
| 20260502233811 | 21 | 81 | 9.7 | 19.3 | 0.00 | 0.00 | 0.00 | 52 | 1018.9 |
| 20260502232313 | 21 | 120 | 11.3 | 20.9 | 0.00 | 0.00 | 0.00 | 52 | 1019.0 |
| 20260502230812 | 21 | 66 | 11.3 | 19.3 | 0.00 | 0.00 | 0.00 | 53 | 1019.0 |
| 20260502225312 | 20 | 90 | 8.0 | 11.3 | 0.00 | 0.00 | 0.00 | 54 | 1019.1 |
| 20260502223811 | 20 | 65 | 4.8 | 12.9 | 0.00 | 0.00 | 0.00 | 54 | 1019.2 |
| 20260502222313 | 20 | 93 | 8.0 | 12.9 | 0.00 | 0.00 | 0.00 | 54 | 1019.0 |
| 20260502220812 | 20 | 53 | 14.5 | 22.5 | 0.00 | 0.00 | 0.00 | 54 | 1018.6 |
| 20260502215312 | 20 | 121 | 12.9 | 20.9 | 0.00 | 0.00 | 0.00 | 54 | 1018.4 |
| 20260502213811 | 19 | 68 | 12.9 | 19.3 | 0.00 | 0.00 | 0.00 | 54 | 1018.4 |
| 20260502212313 | 19 | 133 | 12.9 | 19.3 | 0.00 | 0.00 | 0.00 | 55 | 1018.2 |
| 20260502210813 | 19 | 90 | 9.7 | 12.9 | 0.00 | 0.00 | 0.00 | 55 | 1018.0 |
| 20260502205312 | 18 | 97 | 4.8 | 9.7 | 0.00 | 0.00 | 0.00 | 56 | 1018.0 |
| 20260502203813 | 18 | 90 | 11.3 | 16.1 | 0.00 | 0.00 | 0.00 | 56 | 1017.7 |
| 20260502202312 | 18 | 135 | 8.0 | 11.3 | 0.00 | 0.00 | 0.00 | 55 | 1017.9 |
| 20260502200813 | 18 | 90 | 8.0 | 11.3 | 0.00 | 0.00 | 0.00 | 55 | 1017.7 |
| 20260502195312 | 19 | 90 | 9.7 | 14.5 | 0.00 | 0.00 | 0.00 | 55 | 1017.7 |
| 20260502193812 | 19 | 99 | 8.0 | 11.3 | 0.00 | 0.00 | 0.00 | 55 | 1017.5 |
| 20260502192311 | 19 | 111 | 9.7 | 14.5 | 0.00 | 0.00 | 0.00 | 54 | 1017.4 |
| 20260502190812 | 19 | 61 | 9.7 | 20.9 | 0.00 | 0.00 | 0.00 | 55 | 1017.4 |